TimeEST,TemperatureF,Dew PointF,Humidity,Sea Level PressureIn,VisibilityMPH,Wind Direction,Wind SpeedMPH,Gust SpeedMPH,PrecipitationIn,Events,Conditions,WindDirDegrees,DateUTC
12:15 AM,41.0,41.0,100,29.83,5.0,Calm,Calm,-,N/A,,Scattered Clouds,0,2012-12-17 05:15:00
12:35 AM,41.0,41.0,100,29.81,5.0,Calm,Calm,-,N/A,,Mostly Cloudy,0,2012-12-17 05:35:00
12:55 AM,41.0,41.0,100,29.81,5.0,Calm,Calm,-,N/A,,Scattered Clouds,0,2012-12-17 05:55:00
1:15 AM,41.0,41.0,100,29.80,5.0,Calm,Calm,-,N/A,,Clear,0,2012-12-17 06:15:00
1:35 AM,41.0,41.0,100,29.81,5.0,WNW,3.5,-,N/A,,Clear,300,2012-12-17 06:35:00
1:55 AM,41.0,41.0,100,29.82,5.0,NW,3.5,-,N/A,,Scattered Clouds,320,2012-12-17 06:55:00
2:15 AM,41.0,41.0,100,29.82,5.0,Calm,Calm,-,N/A,,Mostly Cloudy,0,2012-12-17 07:15:00
2:35 AM,41.0,41.0,100,29.82,4.0,ESE,3.5,-,N/A,,Mostly Cloudy,120,2012-12-17 07:35:00
2:55 AM,41.0,41.0,100,29.82,5.0,Calm,Calm,-,N/A,,Overcast,0,2012-12-17 07:55:00
3:15 AM,41.0,41.0,100,29.81,4.0,Calm,Calm,-,N/A,,Mostly Cloudy,0,2012-12-17 08:15:00
3:35 AM,39.2,39.2,100,29.82,4.0,Calm,Calm,-,N/A,,Scattered Clouds,0,2012-12-17 08:35:00
3:55 AM,41.0,41.0,100,29.82,5.0,Calm,Calm,-,N/A,,Mostly Cloudy,0,2012-12-17 08:55:00
4:15 AM,39.2,39.2,100,29.81,3.0,Calm,Calm,-,N/A,,Scattered Clouds,0,2012-12-17 09:15:00
4:35 AM,39.2,39.2,100,29.80,4.0,Calm,Calm,-,N/A,,Clear,0,2012-12-17 09:35:00
4:55 AM,37.4,37.4,100,29.80,2.0,Calm,Calm,-,N/A,,Clear,0,2012-12-17 09:55:00
5:15 AM,35.6,35.6,100,29.81,2.0,Calm,Calm,-,N/A,,Clear,0,2012-12-17 10:15:00
5:35 AM,35.6,35.6,100,29.80,1.2,Calm,Calm,-,N/A,,Mist,0,2012-12-17 10:35:00
5:55 AM,35.6,35.6,100,29.81,1.8,Calm,Calm,-,N/A,,Mist,0,2012-12-17 10:55:00
6:15 AM,35.6,35.6,100,29.82,0.5,NNW,4.6,-,N/A,Fog,Fog,330,2012-12-17 11:15:00
6:35 AM,39.2,39.2,100,29.81,0.5,Calm,Calm,-,N/A,Fog,Fog,0,2012-12-17 11:35:00
6:55 AM,39.2,39.2,100,29.81,0.2,Calm,Calm,-,N/A,Fog,Fog,0,2012-12-17 11:55:00
7:15 AM,39.2,39.2,100,29.82,0.2,Calm,Calm,-,N/A,Fog,Fog,0,2012-12-17 12:15:00
7:35 AM,41.0,41.0,100,29.83,0.2,Calm,Calm,-,N/A,Fog,Fog,0,2012-12-17 12:35:00
7:55 AM,41.0,41.0,100,29.83,0.2,Calm,Calm,-,N/A,Fog,Fog,0,2012-12-17 12:55:00
8:15 AM,41.0,41.0,100,29.83,0.2,Calm,Calm,-,N/A,Fog,Fog,0,2012-12-17 13:15:00
8:35 AM,41.0,41.0,100,29.83,0.2,Calm,Calm,-,N/A,Fog,Fog,0,2012-12-17 13:35:00
8:55 AM,39.2,39.2,100,29.84,0.2,NW,3.5,-,N/A,Fog,Fog,320,2012-12-17 13:55:00
9:15 AM,39.2,39.2,100,29.84,0.2,Calm,Calm,-,N/A,Fog,Fog,0,2012-12-17 14:15:00
9:35 AM,41.0,41.0,100,29.84,0.2,Calm,Calm,-,N/A,Fog,Fog,0,2012-12-17 14:35:00
9:55 AM,41.0,41.0,100,29.84,0.2,Calm,Calm,-,N/A,Fog,Fog,0,2012-12-17 14:55:00
10:15 AM,41.0,41.0,100,29.84,0.2,Calm,Calm,-,N/A,Fog,Fog,0,2012-12-17 15:15:00
10:35 AM,41.0,41.0,100,29.84,1.0,Calm,Calm,-,N/A,,Overcast,0,2012-12-17 15:35:00
10:55 AM,42.8,42.8,100,29.83,1.2,Calm,Calm,-,N/A,,Overcast,0,2012-12-17 15:55:00
11:15 AM,42.8,42.8,100,29.83,1.2,Calm,Calm,-,N/A,,Overcast,0,2012-12-17 16:15:00
11:35 AM,42.8,42.8,100,29.82,1.8,Calm,Calm,-,N/A,,Overcast,0,2012-12-17 16:35:00
11:55 AM,42.8,42.8,100,29.80,1.8,Calm,Calm,-,N/A,,Overcast,0,2012-12-17 16:55:00
12:15 PM,42.8,42.8,100,29.77,1.8,Calm,Calm,-,N/A,,Overcast,0,2012-12-17 17:15:00
12:35 PM,42.8,42.8,100,29.75,1.5,ENE,3.5,-,N/A,,Overcast,70,2012-12-17 17:35:00
12:55 PM,42.8,42.8,100,29.75,2.0,Calm,Calm,-,N/A,,Overcast,0,2012-12-17 17:55:00
1:15 PM,44.6,44.6,100,29.75,3.0,Calm,Calm,-,N/A,,Overcast,0,2012-12-17 18:15:00
1:35 PM,44.6,44.6,100,29.74,4.0,Calm,Calm,-,N/A,,Scattered Clouds,0,2012-12-17 18:35:00
1:55 PM,44.6,44.6,100,29.73,4.0,Calm,Calm,-,N/A,,Scattered Clouds,0,2012-12-17 18:55:00
2:15 PM,44.6,44.6,100,29.73,5.0,Calm,Calm,-,N/A,,Overcast,0,2012-12-17 19:15:00
2:35 PM,46.4,44.6,93,29.71,5.0,ESE,4.6,-,N/A,,Mostly Cloudy,110,2012-12-17 19:35:00
2:55 PM,46.4,44.6,93,29.71,5.0,East,4.6,-,N/A,,Scattered Clouds,90,2012-12-17 19:55:00
3:15 PM,46.4,44.6,93,29.70,5.0,East,3.5,-,N/A,,Mostly Cloudy,80,2012-12-17 20:15:00
3:35 PM,46.4,44.6,93,29.69,5.0,ENE,3.5,-,N/A,,Mostly Cloudy,70,2012-12-17 20:35:00
3:55 PM,46.4,44.6,93,29.69,5.0,East,4.6,-,N/A,,Overcast,80,2012-12-17 20:55:00
4:15 PM,46.4,44.6,93,29.68,5.0,ESE,11.5,-,N/A,,Overcast,110,2012-12-17 21:15:00
4:35 PM,46.4,44.6,93,29.67,5.0,ESE,9.2,-,N/A,,Overcast,110,2012-12-17 21:35:00
4:55 PM,46.4,46.4,100,29.66,2.5,ESE,5.8,-,N/A,,Overcast,110,2012-12-17 21:55:00
7:35 PM,46.4,46.4,100,29.61,5.0,Calm,Calm,-,N/A,,Overcast,0,2012-12-18 00:35:00
7:55 PM,46.4,46.4,100,29.60,2.5,Calm,Calm,-,N/A,,Overcast,0,2012-12-18 00:55:00
8:15 PM,46.4,46.4,100,29.59,3.0,SE,5.8,-,N/A,,Overcast,130,2012-12-18 01:15:00
8:35 PM,46.4,46.4,100,29.59,4.0,ESE,5.8,-,N/A,,Overcast,120,2012-12-18 01:35:00
8:55 PM,46.4,46.4,100,29.58,2.5,SE,4.6,-,N/A,Rain,Light Rain,130,2012-12-18 01:55:00
9:15 PM,46.4,46.4,100,29.58,2.5,Calm,Calm,-,N/A,,Overcast,0,2012-12-18 02:15:00
9:35 PM,48.2,48.2,100,29.58,3.0,South,4.6,-,0.02,Rain,Rain,180,2012-12-18 02:35:00
9:55 PM,48.2,48.2,100,29.57,4.0,South,3.5,-,0.03,Rain,Rain,180,2012-12-18 02:55:00
10:15 PM,48.2,48.2,100,29.57,5.0,Calm,Calm,-,N/A,,Overcast,0,2012-12-18 03:15:00
10:35 PM,48.2,48.2,100,29.57,4.0,Calm,Calm,-,N/A,Rain,Light Rain,0,2012-12-18 03:35:00
10:55 PM,48.2,48.2,100,29.57,4.0,Calm,Calm,-,0.03,Rain,Light Rain,0,2012-12-18 03:55:00
11:15 PM,46.4,46.4,100,29.56,3.0,SSE,3.5,-,N/A,Rain,Light Rain,160,2012-12-18 04:15:00
11:35 PM,46.4,46.4,100,29.55,2.0,South,3.5,-,N/A,Rain,Rain,170,2012-12-18 04:35:00
11:55 PM,46.4,46.4,100,29.53,4.0,South,5.8,-,N/A,Rain,Light Rain,180,2012-12-18 04:55:00